Flag for U.S.A. Weather past 2 weeks in Pueblo, Colorado, U.S.A.

Now
49 °F

Partly cloudy.


Feels Like: 42 °F
Forecast: 44 / 66 °F
Wind: 20 mph from North

Location: Pueblo Memorial Airport

Current Time: Oct 2, 2014 at 3:31:17 AM

Latest Report: Oct 2, 2014 at 2:53 AM


Visibility: 10 mi

Pressure: 29.90 "Hg

Humidity: 61%

Dew point: 36 °F

Location of PuebloLocation

Historic Weather in Pueblo — Graph

°F

Pueblo temperature yesterday

Maximum temperature yesterday: 75 °F (at 2:53 PM)
Minimum temperature yesterday: 45 °F (at 5:53 AM)
Average temperature yesterday: 58 °F

Past Weeks' High & Low Weather Summary

 TemperatureHumidityPressure
High91 °F (Sep 17, 2:53 PM)96% (Sep 21, 6:53 AM)30.34 "Hg (Sep 21, 6:53 AM)
Low41 °F (Sep 30, 6:53 AM)12% (Sep 18, 3:53 PM)29.57 "Hg (Sep 29, 2:53 PM)
Average67 °F47%29.88 "Hg
* Reported Sep 17 1:53 AM — Oct 2 1:53 AM, Pueblo, Weather by CustomWeather, © 2014

Note: Actual official high and low records may vary slightly from our data, if they occured in-between our weather recording intervals... More about our weather records

Advertising

Pueblo weather history for previous 24 hours

 ConditionsComfort  
Time TempWeatherWind HumidityBarometerVisibility
1:53 AM
Oct 2
50 °FOvercast.20 mph61%29.90 "Hg10 mi
12:53 AM51 °FMostly cloudy.25 mph56%29.88 "Hg10 mi
11:53 PM
Oct 1
51 °FClear.18 mph63%29.85 "Hg10 mi
10:53 PM52 °FPassing clouds.23 mph64%29.85 "Hg10 mi
9:53 PM51 °FPassing clouds.25 mph71%29.86 "Hg10 mi
8:53 PM53 °FOvercast.31 mph64%29.83 "Hg10 mi
7:53 PM62 °FOvercast.3 mph44%29.77 "Hg10 mi
6:53 PM64 °FScattered clouds.3 mph40%29.74 "Hg10 mi
5:53 PM66 °FOvercast.21 mph34%29.73 "Hg10 mi
4:53 PM68 °FScattered clouds.22 mph36%29.67 "Hg10 mi
3:53 PM74 °FScattered clouds.20 mph21%29.63 "Hg10 mi
2:53 PM75 °FScattered clouds.14 mph22%29.64 "Hg10 mi
1:53 PM72 °FPartly sunny.8 mph25%29.66 "Hg10 mi
12:53 PM71 °FPassing clouds.9 mph25%29.69 "Hg10 mi
11:53 AM68 °FSunny.9 mph31%29.73 "Hg10 mi
10:53 AM64 °FSunny.3 mph34%29.78 "Hg10 mi
9:53 AM59 °FSunny.No wind42%29.79 "Hg10 mi
8:53 AM52 °FSunny.No wind61%29.80 "Hg10 mi
7:53 AM47 °FSunny.No wind74%29.80 "Hg10 mi
6:53 AM45 °FClear.3 mph71%29.79 "Hg10 mi
5:53 AM45 °FClear.No wind74%29.76 "Hg10 mi
4:53 AM47 °FClear.5 mph66%29.74 "Hg10 mi
3:53 AM46 °FClear.8 mph66%29.73 "Hg10 mi
Weather by CustomWeather, © 2014

See weather overviewHow to use our weather pages